SDM6326 UMKK-ULLI

Flight info

Callsign SDM6326
Flight time N/A
Altitude 37000
Route PELUG DCT KEDUX DCT PIVAX DCT PINIX DCT PIRUX DCT PISIM DCT PIDIN DCT ARANS/K0839F370 DCT PISIS DCT AKARU
Aircraft A319/M-SDE3FGHIRWY/LB1

Departure

Time 2026-05-05 15:50
Airport Khrabrovo Airport (UMKK)

Arrival

Time N/A
Airport Pulkovo Airport (ULLI)
Time Latitude Longitude Altitude Speed Heading
2026-05-05 15:28 54.88401 20.58651 49 ft 0 kts 156°
2026-05-05 15:37 54.88412 20.58643 49 ft 2 kts 157°
2026-05-05 15:38 54.88425 20.58632 50 ft 2 kts 154°
2026-05-05 15:38 54.88438 20.58621 50 ft 2 kts 155°
2026-05-05 15:38 54.88452 20.58609 50 ft 2 kts 136°
2026-05-05 15:38 54.88459 20.58586 50 ft 2 kts 98°
2026-05-05 15:39 54.88457 20.58561 50 ft 2 kts 60°
2026-05-05 15:39 54.88451 20.58541 50 ft 0 kts 66°
2026-05-05 15:39 54.88450 20.58538 50 ft 0 kts 66°
2026-05-05 15:42 54.88450 20.58539 49 ft 0 kts 66°
2026-05-05 15:42 54.88455 20.58557 50 ft 3 kts 64°
2026-05-05 15:42 54.88472 20.58616 50 ft 7 kts 64°
2026-05-05 15:43 54.88495 20.58702 49 ft 7 kts 66°
2026-05-05 15:43 54.88519 20.58792 49 ft 8 kts 58°
2026-05-05 15:43 54.88573 20.58803 49 ft 9 kts 336°
2026-05-05 15:43 54.88636 20.58754 49 ft 10 kts 335°
2026-05-05 15:44 54.88694 20.58762 49 ft 9 kts 55°
2026-05-05 15:44 54.88726 20.58873 49 ft 11 kts 64°
2026-05-05 15:44 54.88776 20.58966 49 ft 8 kts 36°
2026-05-05 15:44 54.88831 20.59034 49 ft 10 kts 35°
2026-05-05 15:45 54.88894 20.59112 49 ft 11 kts 36°
2026-05-05 15:45 54.88963 20.59214 50 ft 14 kts 47°
2026-05-05 15:45 54.89029 20.59361 50 ft 16 kts 56°
2026-05-05 15:45 54.89080 20.59549 49 ft 18 kts 66°
2026-05-05 15:46 54.89135 20.59755 49 ft 19 kts 65°
2026-05-05 15:46 54.89194 20.59981 49 ft 21 kts 65°
2026-05-05 15:46 54.89258 20.60229 50 ft 25 kts 66°
2026-05-05 15:46 54.89339 20.60541 50 ft 31 kts 66°
2026-05-05 15:47 54.89435 20.60907 50 ft 35 kts 66°
2026-05-05 15:47 54.89539 20.61313 50 ft 36 kts 66°
2026-05-05 15:47 54.89630 20.61669 50 ft 25 kts 65°
2026-05-05 15:47 54.89687 20.61879 50 ft 15 kts 65°
2026-05-05 15:48 54.89701 20.62037 50 ft 11 kts 95°
2026-05-05 15:48 54.89703 20.62170 50 ft 10 kts 70°
2026-05-05 15:48 54.89748 20.62240 50 ft 8 kts 354°
2026-05-05 15:48 54.89767 20.62158 50 ft 9 kts 238°
2026-05-05 15:49 54.89729 20.62050 50 ft 11 kts 245°
2026-05-05 15:49 54.89642 20.61710 50 ft 65 kts 246°
2026-05-05 15:49 54.89373 20.60677 50 ft 129 kts 246°
2026-05-05 15:49 54.88947 20.59018 260 ft 163 kts 248°
2026-05-05 15:50 54.88465 20.57200 842 ft 172 kts 247°
2026-05-05 15:50 54.88158 20.55219 1530 ft 174 kts 278°
2026-05-05 15:50 54.88673 20.53444 2237 ft 170 kts 322°
2026-05-05 15:50 54.89788 20.52739 2797 ft 181 kts 352°
2026-05-05 15:51 54.91066 20.52330 3282 ft 196 kts 342°
2026-05-05 15:51 54.92399 20.51500 3764 ft 213 kts 336°
2026-05-05 15:51 54.93813 20.50429 4201 ft 234 kts 333°
2026-05-05 15:51 54.95346 20.49176 4732 ft 253 kts 332°
2026-05-05 15:52 54.96961 20.47815 5395 ft 266 kts 331°
2026-05-05 15:52 54.98633 20.46393 6287 ft 271 kts 330°